Stations météo

réclame
Mon MeteoGroup
Reus, Espagne (8175): Température de l'air & dewpoint: 12.02.2019 20:00:00 - 18.02.2019 20:00:00 (CET)Reus, Espagne (8175): Vitesse du vent: 12.02.2019 20:00:00 - 18.02.2019 20:00:00 (CET)Reus, Espagne (8175): Direction du vent: 12.02.2019 20:00:00 - 18.02.2019 20:00:00 (CET)Reus, Espagne (8175): reduced air pressure: 12.02.2019 20:00:00 - 18.02.2019 20:00:00 (CET)Reus, Espagne (8175): visibility: 12.02.2019 20:00:00 - 18.02.2019 20:00:00 (CET)
Date & Time tt [°C] td [°C] ff [km/h] ff [knt] dd ppp [hPa] vv [km]
18.02.2019 20:00:00 - - - - - - -
18.02.2019 19:00:00 10,3 7,8 4 2 E 1021,6 23
18.02.2019 18:00:00 12,2 8,4 8 4 SE 1021,1 30
18.02.2019 17:00:00 14,1 7,7 11 6 SE 1021,2 30
18.02.2019 16:00:00 15,2 6,7 11 6 SE 1021,4 30
18.02.2019 15:00:00 15,4 6,7 11 6 SE 1021,8 30
18.02.2019 14:00:00 15,1 6,6 11 6 SSE 1022,4 30
18.02.2019 13:00:00 13,5 6,3 2 1 S 1023,2 30
18.02.2019 12:00:00 13,9 6,4 8 4 SE 1023,9 30
18.02.2019 11:00:00 11,8 7,2 8 4 NNE 1024,1 11
18.02.2019 10:00:00 11,6 6,9 11 6 NNE 1024,0 18
18.02.2019 09:00:00 9,0 6,1 11 6 N 1023,7 22
18.02.2019 08:00:00 4,5 3,5 8 4 N 1023,4 12
18.02.2019 07:00:00 5,8 4,5 13 7 N 1023,4 12
18.02.2019 06:00:00 6,3 4,7 13 7 N 1023,6 30
18.02.2019 05:00:00 6,3 4,7 13 7 N 1023,6 23
18.02.2019 04:00:00 7,3 5,2 15 8 NNE 1023,9 20
18.02.2019 03:00:00 7,2 5,3 11 6 N 1024,7 30
18.02.2019 02:00:00 6,1 4,7 9 5 N 1024,8 16
18.02.2019 01:00:00 5,2 4,6 8 4 N 1025,3 23
18.02.2019 00:00:00 4,9 3,6 8 4 NNE 1025,5 6
17.02.2019 23:00:00 7,4 5,9 9 5 NNW 1025,8 8
17.02.2019 22:00:00 8,1 6,5 11 6 NNW 1025,7 12
17.02.2019 21:00:00 8,6 6,5 9 5 NNW 1025,5 9
17.02.2019 20:00:00 9,4 7,7 8 4 NNW 1025,5 12
17.02.2019 19:00:00 9,7 8,2 4 2 SSW 1025,1 10
17.02.2019 18:00:00 11,9 8,3 9 5 SSE 1024,7 30
17.02.2019 17:00:00 13,8 8,7 8 4 S 1024,8 25
17.02.2019 16:00:00 13,7 8,5 11 6 SSE 1025,4 30
17.02.2019 15:00:00 14,7 7,7 13 7 SSE 1025,7 30
17.02.2019 14:00:00 14,9 7,6 13 7 SSE 1026,1 30
17.02.2019 13:00:00 14,6 7,3 11 6 SSE 1026,9 30
17.02.2019 12:00:00 14,3 5,5 9 5 SSE 1027,5 30
17.02.2019 11:00:00 13,1 5,7 4 2 ENE 1027,8 30
17.02.2019 10:00:00 10,3 1,2 9 5 NNE 1028,0 30
17.02.2019 09:00:00 3,9 -1,1 9 5 NNE 1028,3 30
17.02.2019 08:00:00 1,2 -3,8 5 3 N 1028,2 30
17.02.2019 07:00:00 2,2 -2,6 8 4 N 1028,2 30
17.02.2019 06:00:00 3,6 -3,2 15 8 N 1028,1 30
17.02.2019 05:00:00 3,9 -5,4 9 5 N 1028,0 30
17.02.2019 04:00:00 2,6 -7,1 13 7 N 1028,3 30
17.02.2019 03:00:00 2,5 -7,0 11 6 N 1028,4 30
17.02.2019 02:00:00 2,9 -7,2 9 5 N 1028,7 30
17.02.2019 01:00:00 3,9 -6,1 16 9 N 1028,8 30
17.02.2019 00:00:00 2,7 -4,9 8 4 NNE 1029,2 30
16.02.2019 23:00:00 3,3 -4,9 8 4 N 1029,5 30
16.02.2019 22:00:00 3,9 -3,4 9 5 N 1029,4 30
16.02.2019 21:00:00 4,9 -0,3 11 6 N 1029,2 26
16.02.2019 20:00:00 6,2 1,9 8 4 N 1029,1 15
16.02.2019 19:00:00 10,1 4,7 0 0 N 1029,0 30
16.02.2019 18:00:00 13,3 4,8 2 1 SSE 1028,6 30
16.02.2019 17:00:00 14,9 3,8 9 5 SSE 1028,8 30
16.02.2019 16:00:00 16,1 4,9 9 5 SSE 1029,0 30
16.02.2019 15:00:00 16,8 3,5 9 5 SSE 1029,4 30
16.02.2019 14:00:00 16,8 2,9 9 5 S 1030,0 30
16.02.2019 13:00:00 17,0 0,9 8 4 S 1030,6 30
16.02.2019 12:00:00 16,7 -2,1 5 3 S 1031,0 30
16.02.2019 11:00:00 14,9 -1,3 4 2 E 1031,1 23
16.02.2019 10:00:00 12,4 1,7 8 4 NE 1030,8 30
16.02.2019 09:00:00 5,8 -0,9 5 3 NNE 1030,8 30
16.02.2019 08:00:00 1,5 -2,9 9 5 N 1030,4 30
16.02.2019 07:00:00 1,1 -2,8 13 7 NNE 1030,0 30
16.02.2019 06:00:00 1,8 -2,2 8 4 N 1029,8 30
16.02.2019 05:00:00 1,5 -2,0 13 7 N 1029,5 30
16.02.2019 04:00:00 1,4 -1,1 8 4 N 1029,8 30
16.02.2019 03:00:00 2,5 -1,2 13 7 N 1030,1 30
16.02.2019 02:00:00 2,7 -0,3 8 4 N 1030,2 30
16.02.2019 01:00:00 2,8 0,8 8 4 NNW 1030,3 25
16.02.2019 00:00:00 3,3 2,1 8 4 N 1030,3 14
15.02.2019 23:00:00 4,0 2,8 9 5 N 1030,2 8
15.02.2019 22:00:00 5,5 4,2 11 6 NNW 1030,3 9
15.02.2019 21:00:00 6,1 4,9 9 5 NNW 1030,2 4,0
15.02.2019 20:00:00 7,9 5,6 5 3 W 1030,1 10
15.02.2019 19:00:00 9,0 6,8 4 2 SSW 1029,8 15
15.02.2019 18:00:00 11,7 6,9 9 5 SW 1029,1 30
15.02.2019 17:00:00 13,5 6,7 8 4 S 1029,2 30
15.02.2019 16:00:00 14,3 6,3 9 5 SSW 1029,5 20
15.02.2019 15:00:00 14,4 6,3 11 6 SSW 1029,9 26
15.02.2019 14:00:00 14,8 6,7 9 5 SW 1030,4 30
15.02.2019 13:00:00 14,4 6,8 8 4 SSW 1031,4 20
15.02.2019 12:00:00 13,3 6,2 8 4 W 1032,2 27
15.02.2019 11:00:00 11,3 6,0 5 3 SW 1032,2 26
15.02.2019 10:00:00 9,9 5,6 9 5 NE 1032,0 30
15.02.2019 09:00:00 5,1 3,1 9 5 NE 1032,2 28
15.02.2019 08:00:00 3,6 2,6 9 5 NNE 1031,8 30
15.02.2019 07:00:00 2,5 1,6 8 4 NNE 1031,6 20
15.02.2019 06:00:00 5,8 3,7 15 8 NNE 1031,3 30
15.02.2019 05:00:00 2,7 1,2 11 6 NE 1031,5 30
15.02.2019 04:00:00 2,0 1,2 8 4 NNE 1031,5 30
15.02.2019 03:00:00 2,5 1,3 9 5 N 1032,0 30
15.02.2019 02:00:00 3,2 1,7 9 5 N 1032,2 30
15.02.2019 01:00:00 3,9 2,6 9 5 N 1032,3 30
15.02.2019 00:00:00 3,7 2,5 8 4 NNE 1032,6 24
14.02.2019 23:00:00 4,0 3,1 9 5 N 1032,8 30
14.02.2019 22:00:00 5,4 4,1 11 6 NW 1032,7 10
14.02.2019 21:00:00 6,0 4,4 11 6 NNW 1032,8 17
14.02.2019 20:00:00 7,0 4,5 5 3 WNW 1032,8 25
14.02.2019 19:00:00 9,0 5,8 4 2 SW 1032,9 30
14.02.2019 18:00:00 11,6 6,5 9 5 S 1032,6 30
14.02.2019 17:00:00 13,6 6,1 9 5 SSW 1032,8 30
14.02.2019 16:00:00 14,1 6,4 11 6 SSW 1033,1 30
14.02.2019 15:00:00 14,4 6,4 13 7 S 1033,6 30
14.02.2019 14:00:00 14,4 7,1 9 5 S 1034,3 30
14.02.2019 13:00:00 14,1 6,1 13 7 S 1035,2 30
14.02.2019 12:00:00 14,1 7,1 8 4 WSW 1035,8 30
14.02.2019 11:00:00 12,8 6,6 0 0 N 1036,0 30
14.02.2019 10:00:00 10,7 6,4 11 6 NNE 1035,8 30
14.02.2019 09:00:00 7,2 5,1 11 6 NNE 1035,9 27
14.02.2019 08:00:00 6,0 4,6 13 7 N 1035,4 30
14.02.2019 07:00:00 6,1 4,7 11 6 N 1035,4 25
14.02.2019 06:00:00 5,1 4,0 9 5 NNE 1035,3 12
14.02.2019 05:00:00 6,0 4,8 13 7 N 1034,9 23
14.02.2019 04:00:00 5,8 4,7 11 6 NNE 1035,0 18
14.02.2019 03:00:00 5,0 4,1 9 5 NNE 1035,1 11
14.02.2019 02:00:00 6,2 4,9 11 6 N 1034,9 11
14.02.2019 01:00:00 6,3 5,0 11 6 N 1034,8 19
14.02.2019 00:00:00 6,4 5,2 13 7 N 1034,6 16
13.02.2019 23:00:00 6,2 5,4 11 6 NNW 1034,3 9
13.02.2019 22:00:00 7,4 6,4 8 4 N 1034,0 13
13.02.2019 21:00:00 8,0 7,0 8 4 NNW 1033,8 6
13.02.2019 20:00:00 7,7 6,8 9 5 NNW 1033,5 12
13.02.2019 19:00:00 9,7 7,9 8 4 ENE 1033,3 15
13.02.2019 18:00:00 11,8 8,6 8 4 SE 1033,0 30
13.02.2019 17:00:00 13,7 8,7 9 5 S 1032,6 30
13.02.2019 16:00:00 14,1 8,7 11 6 SSE 1032,7 30
13.02.2019 15:00:00 13,9 8,5 13 7 SSE 1032,8 30
13.02.2019 14:00:00 14,7 8,7 9 5 S 1032,9 30
13.02.2019 13:00:00 14,7 8,3 11 6 S 1033,2 30
13.02.2019 12:00:00 14,2 7,2 11 6 S 1033,3 23
13.02.2019 11:00:00 12,8 5,7 5 3 SE 1033,1 22
13.02.2019 10:00:00 9,6 1,9 9 5 N 1032,9 30
13.02.2019 09:00:00 5,8 -0,2 15 8 N 1032,5 30
13.02.2019 08:00:00 1,6 -0,9 8 4 N 1032,0 30
13.02.2019 07:00:00 2,2 -0,6 13 7 N 1031,3 30
13.02.2019 06:00:00 0,9 -0,9 5 3 NE 1031,0 30
13.02.2019 05:00:00 1,4 -0,1 8 4 NNE 1030,9 30
13.02.2019 04:00:00 2,7 0,4 13 7 N 1031,0 30
13.02.2019 03:00:00 2,4 0,3 9 5 N 1031,3 30
13.02.2019 02:00:00 3,3 0,0 8 4 N 1031,8 30
13.02.2019 01:00:00 4,2 -0,5 13 7 NNE 1032,1 30
13.02.2019 00:00:00 4,3 0,2 13 7 NNE 1032,2 30
12.02.2019 23:00:00 5,7 1,0 13 7 NNE 1032,4 30
12.02.2019 22:00:00 6,3 2,3 9 5 N 1032,3 30
12.02.2019 21:00:00 6,8 3,9 4 2 N 1031,9 18
12.02.2019 20:00:00 8,0 5,3 4 2 W 1031,8 30

tt = Température de l'air
td = dewpoint
ff = Vitesse du vent
dd = Direction du vent
ppp = reduced air pressure
vv = visibility

stations d'obs. à proximité